Flag for Germany Weather past 2 weeks in Oranienburg, Brandenburg, Germany

Now
38 °F

Drizzle. Low clouds.


Feels Like: 36 °F
Forecast: 31 / 46 °F
Wind: 3 mph from Northwest

Location: Berlin-Tegel

Current Time: Feb 28, 2015 at 3:56:39 AM

Latest Report: Feb 28, 2015 at 3:00 AM


Visibility: 7 mi

Pressure: 30.03 "Hg

Humidity: 95%

Dew point: 37 °F

Location of OranienburgLocation

Historic Weather in Oranienburg — Graph

°F

Oranienburg temperature yesterday

Maximum temperature yesterday: 51 °F (at 2:00 PM)
Minimum temperature yesterday: 31 °F (at 7:00 AM)
Average temperature yesterday: 40 °F

Past Weeks' High & Low Weather Summary

 TemperatureHumidityPressure
High52 °F (Feb 21, 12:00 PM)100% (Feb 13, 3:00 AM)30.73 "Hg (Feb 13, 3:00 AM)
Low27 °F (Feb 20, 5:00 AM)40% (Feb 26, 3:00 PM)29.35 "Hg (Feb 21, 2:00 PM)
Average37 °F78%30.03 "Hg
* Reported Feb 13 3:00 AM — Feb 28 3:00 AM, Oranienburg, Weather by CustomWeather, © 2015

Note: Actual official high and low records may vary slightly from our data, if they occured in-between our weather recording intervals... More about our weather records

Advertising

Oranienburg weather history for previous 24 hours

 ConditionsComfort  
Time TempWeatherWind HumidityBarometerVisibility
3:00 AM
Sat, Feb 28
38 °FDrizzle. Low clouds.3 mph95%30.03 "Hg7 mi
2:00 AM38 °FRain. Low clouds.3 mph97%30.03 "Hg4 mi
1:00 AM38 °FLight rain. Low clouds.3 mph97%30.02 "Hg6 mi
12:00 AM38 °FLight rain. Low clouds.3 mph95%30.01 "Hg11 mi
11:00 PM
Fri, Feb 27
37 °FOvercast.2 mph90%30.01 "Hg12 mi
10:00 PM35 °FPassing clouds.1 mph87%30.00 "Hg16 mi
9:00 PM37 °FPassing clouds.1 mph77%29.98 "Hg16 mi
8:00 PM39 °FPassing clouds.1 mph70%29.97 "Hg16 mi
7:00 PM42 °FPassing clouds.2 mph62%29.96 "Hg17 mi
6:00 PM47 °FPassing clouds.2 mph43%29.92 "Hg14 mi
5:00 PM49 °FPassing clouds.2 mph40%29.91 "Hg16 mi
4:00 PM50 °FPassing clouds.2 mph42%29.90 "Hg16 mi
3:00 PM50 °FPassing clouds.3 mph43%29.89 "Hg14 mi
2:00 PM51 °FPassing clouds.2 mph43%29.89 "Hg12 mi
1:00 PM49 °FPassing clouds.3 mph44%29.90 "Hg12 mi
12:00 PM47 °FSunny.3 mph52%29.91 "Hg11 mi
11:00 AM44 °FSunny.2 mph62%29.91 "Hg9 mi
10:00 AM40 °FSunny.3 mph70%29.91 "Hg9 mi
9:00 AM37 °FSunny.3 mph78%29.91 "Hg9 mi
8:00 AM33 °FSunny.3 mph87%29.91 "Hg9 mi
7:00 AM31 °FSunny.3 mph88%29.91 "Hg9 mi
6:00 AM31 °FClear.3 mph86%29.90 "Hg19 mi
5:00 AM32 °FClear.3 mph81%29.91 "Hg19 mi
4:00 AM34 °FClear.3 mph81%29.93 "Hg19 mi
3:00 AM35 °FClear.5 mph81%29.95 "Hg22 mi
Weather by CustomWeather, © 2015

See weather overviewHow to use our weather pages